Lid_Strength_Index
4 5 5 5 5 5 4 4 4 4 5 5 5 5 4 5 4 8 8 8 11 13 15 13 12 14 14 13 16 14 15 14 15 16 19 15 21 16 20 18 18 19 18 19 21 21 21 13 13 15 12 13 14 14
4 5 5 5 5 5 4 4 4 4 4 5 5 5 4 5 5 6 11 8 8 13 14 11 11 11 11 11 12 12 13 13 10 13 14 12 18 15 17 24 15 20 15 18 16 16 12 12 12 11 11 11 12 13
5 5 5 5 5 5 5 4 4 4 4 5 5 5 5 4 5 7 11 10 11 13 13 14 14 12 9 10 8 12 13 10 9 9 11 12 15 12 23 20 17 15 14 16 16 15 13 11 11 11 11 11 11 12
5 5 5 5 5 5 5 5 5 4 4 4 5 5 4 4 5 6 10 10 12 15 20 17 11 13 10 9 9 9 9 8 9 9 12 13 21 12 16 14 15 15 14 18 17 14 14 12 12 10 10 11 11 11
5 5 5 5 6 5 5 5 5 5 4 4 4 4 5 5 5 8 10 10 10 13 19 18 16 13 11 10 10 10 9 10 13 14 19 18 14 15 15 12 14 14 15 16 16 13 12 11 12 11 11 11 11 12
6 6 5 6 6 6 5 6 6 5 4 4 4 4 4 5 6 11 17 11 9 11 18 22 16 16 13 12 11 12 11 10 10 12 19 17 13 15 21 23 13 12 13 11 13 14 13 12 13 13 11 12 12 12
6 6 6 5 6 6 6 5 6 5 5 4 4 4 5 5 10 14 16 12 8 11 18 20 17 14 13 13 13 12 11 12 13 17 18 18 15 16 23 21 13 13 12 12 12 13 13 15 12 15 15 15 16 17
6 6 6 6 6 6 6 5 5 5 4 4 4 4 5 5 8 12 9 7 10 13 17 24 21 17 13 16 15 12 13 13 13 18 13 14 15 18 18 15 14 14 13 13 13 14 12 14 17 17 19 19 17 17
6 6 6 6 6 5 5 5 5 5 4 4 4 4 8 11 13 12 7 9 12 15 22 25 22 20 13 16 16 13 13 17 17 16 17 14 16 17 17 17 16 15 15 15 15 16 16 17 14 14 20 20 19 17
6 6 6 6 5 5 5 5 4 4 4 4 7 12 14 12 6 8 11 13 14 13 17 21 22 20 17 20 21 19 23 22 23 20 18 17 19 17 15 18 18 19 21 22 19 16 22 21 22 21 20 17 16 15
6 6 6 6 5 5 5 5 4 4 5 11 12 13 11 6 10 12 16 17 18 18 18 19 20 17 15 22 24 19 20 17 20 23 19 21 21 19 22 23 24 25 25 26 25 24 25 23 21 21 19 17 17 16
6 6 5 5 5 5 5 4 4 7 11 10 10 10 11 12 15 18 18 21 23 21 19 16 16 19 20 19 17 19 21 19 22 26 21 21 19 21 25 25 25 28 29 26 28 25 25 25 24 24 21 18 19 17
5 5 5 5 5 5 4 4 4 6 7 10 11 12 13 15 17 19 22 21 22 21 16 18 16 17 16 14 18 17 19 21 27 22 24 22 21 23 26 29 28 29 31 28 30 31 30 28 28 28 22 23 25 25
5 5 5 5 5 4 4 4 5 6 11 12 14 17 16 19 18 21 22 20 19 18 17 18 16 15 15 16 17 19 25 24 24 28 25 22 20 23 29 31 30 27 30 32 30 32 30 29 28 29 29 28 23 23
5 5 5 5 5 4 4 4 5 8 11 13 13 18 19 20 24 21 21 19 22 14 16 18 20 18 16 19 18 27 26 29 26 24 23 21 23 27 28 30 29 29 30 31 32 31 28 25 27 28 27 27 25 25
4 5 6 5 4 4 4 5 7 9 10 12 14 18 21 19 25 25 24 17 20 14 20 20 21 24 24 23 25 26 26 25 22 23 21 26 28 29 29 30 29 28 32 32 32 30 22 23 28 28 28 26 26 25
7 12 6 4 4 4 4 8 10 11 11 12 16 19 19 19 19 20 21 18 13 13 20 21 22 22 22 27 28 25 22 20 21 22 25 25 25 27 30 31 28 28 30 31 30 21 21 25 30 29 27 27 27 26
12 10 6 3 4 4 8 9 10 11 13 12 16 17 17 18 16 23 21 13 14 19 18 19 19 25 23 24 25 19 19 21 25 25 25 28 30 31 30 28 27 28 30 30 22 20 20 21 27 29 29 26 26 28
9 9 7 6 7 8 9 9 8 12 12 12 17 13 15 19 15 14 13 11 20 16 16 20 23 24 22 21 19 20 21 20 18 23 28 31 30 28 28 21 27 27 27 28 29 22 22 21 20 21 21 22 25 30
7 6 6 6 7 10 12 12 9 12 13 12 13 16 16 16 14 13 12 14 16 16 18 21 20 20 18 18 19 18 19 19 20 23 24 28 30 28 26 22 28 30 25 27 30 28 28 24 23 23 23 25 28 30
9 8 7 9 11 11 13 14 15 14 13 13 13 12 16 18 16 18 15 16 18 17 19 23 25 31 32 31 29 27 26 23 21 19 20 24 27 26 26 28 27 28 28 30 29 29 28 27 29 31 29 32 33 32
10 8 12 10 13 13 14 15 15 14 14 14 12 12 13 15 18 16 13 18 22 30 33 33 33 34 31 30 31 30 30 30 28 26 25 24 25 25 26 25 25 25 27 26 27 27 30 29 29 30 29 31 30 30
13 14 17 18 16 16 18 14 16 15 16 15 13 14 14 13 12 11 19 25 28 28 31 35 34 35 32 32 29 29 30 29 28 28 28 27 26 26 25 24 24 24 25 27 29 27 28 29 27 28 29 31 30 30
19 27 25 26 24 22 20 17 16 16 15 16 16 17 18 18 16 20 26 29 28 28 30 30 28 29 28 27 29 31 28 31 29 29 30 28 27 26 26 25 25 25 25 25 27 28 28 28 27 27 28 30 31 31
26 33 29 31 28 26 26 23 22 18 20 19 19 20 21 20 20 26 28 31 30 30 30 30 29 27 28 29 28 29 29 27 29 30 29 30 30 29 27 27 26 25 26 25 28 28 29 28 27 27 28 28 28 30
33 32 33 36 31 30 32 30 30 29 27 24 24 25 22 20 23 30 33 32 31 30 30 30 30 30 29 27 29 30 28 29 30 28 28 28 28 28 27 26 26 23 24 24 24 25 26 26 26 26 27 27 27 29
33 37 34 33 31 31 30 29 29 30 29 32 33 28 22 21 27 32 30 30 31 29 28 28 28 28 27 26 25 25 25 26 28 26 27 27 26 27 26 25 24 24 23 22 22 23 24 24 24 24 25 27 27 26
34 31 34 32 34 36 38 36 33 32 32 30 29 32 27 31 31 31 29 27 28 27 27 26 25 25 25 24 25 25 26 25 25 25 24 26 27 26 26 27 26 20 24 23 22 22 22 22 23 23 24 24 26 26
34 33 34 35 35 33 34 36 37 35 29 29 30 34 33 29 28 29 28 28 27 27 28 28 27 25 25 24 24 25 25 25 25 24 26 27 27 25 24 25 26 25 23 22 18 20 21 21 22 22 22 23 23 23
32 33 35 36 36 36 34 33 36 33 33 31 30 30 29 29 28 27 27 28 29 30 28 28 28 28 28 28 28 26 25 26 26 26 26 27 27 25 24 23 23 25 24 23 21 19 16 19 19 22 23 23 23 23
27 27 29 27 28 29 29 28 28 31 31 29 30 32 32 31 28 27 27 27 28 31 31 30 30 29 30 30 29 29 28 26 26 26 25 25 25 25 23 22 22 22 21 21 21 21 21 22 22 23 23 23 23 24
29 34 32 32 31 29 28 28 27 30 29 29 29 29 28 29 35 31 26 27 29 32 31 32 32 31 29 30 29 28 26 27 27 25 23 24 24 23 22 21 20 20 21 21 21 21 22 22 22 23 23 23 24 24
36 37 39 37 34 33 29 30 30 30 27 29 29 29 31 30 32 28 23 24 26 27 28 28 28 27 27 28 29 28 26 27 25 22 20 19 20 21 22 21 21 21 21 21 22 22 22 23 23 24 24 24 24 25